LEMUR-2-MCPEAKE (42782 NORAD) Tracking and Keplerian Element Data

This shows tracking and keplerian element data for the satellite.

Feedback or suggestion? Click here.




ElementValue
Catalog42782
NameLEMUR-2-MCPEAKE
Epoch Orbit34444
Epoch Day238.78399867
Epoch Year2023
RAAN284.2691
Inclination97.125
Eccentricity0.0008591
Argument of Perigee215.1333
Mean Anonmoly144.9381
Mean Motion16.00876185
Decay Rate0.00973273
L11 42782U 17036T 23238.78399867 .00973273 47174-3 18335-2 0 9994
L22 42782 97.1250 284.2691 0008591 215.1333 144.9381 16.00876185344443



Live tracking and technical data element details for LEMUR-2-MCPEAKE (NORAD 42782). LEMUR-2-MCPEAKE can be tracked NOW for your location showing map with azimuth and elevation plus other details from your city location.







IsCatalogInMostPopularTable: catalog: 42782, numindb: 358
Update: records affected: 1



GetName: 42782 LEMUR-2-MCPEAKE

Hit Count: updated at: Thu, 15 May 2025 09:31:44 GMT